Time,TemperatureF,DewpointF,PressureIn,WindDirection,WindDirectionDegrees,WindSpeedMPH,WindSpeedGustMPH,Humidity,HourlyPrecipIn,Conditions,Clouds,dailyrainin,SoftwareType,DateUTC
2013-02-03 00:00:00,41.1,34.6,30.04,NNW,338,0.7,0.8,78,0.00,,---,0.00,VWS V14.01,2013-02-03 05:00:00,
2013-02-03 00:02:00,41.1,34.6,30.04,NW,315,3.0,3.8,78,0.00,,---,0.00,VWS V14.01,2013-02-03 05:02:00,
2013-02-03 00:07:00,41.3,35.4,30.04,West,270,2.6,3.4,80,0.00,,---,0.00,VWS V14.01,2013-02-03 05:07:00,
2013-02-03 00:13:00,41.7,35.5,30.04,NNE,22,0.7,2.3,79,0.00,,---,0.00,VWS V14.01,2013-02-03 05:13:00,
2013-02-03 00:18:00,41.8,36.0,30.01,North,0,1.8,2.3,80,0.00,,---,0.00,VWS V14.01,2013-02-03 05:18:00,
2013-02-03 00:23:00,41.9,36.4,30.03,WNW,292,1.5,1.9,81,0.00,,---,0.00,VWS V14.01,2013-02-03 05:23:00,
2013-02-03 00:28:00,41.9,36.1,30.04,NW,315,1.8,2.3,80,0.00,,---,0.00,VWS V14.01,2013-02-03 05:28:00,
2013-02-03 00:33:00,41.9,36.1,30.04,WNW,292,0.7,2.3,80,0.00,,---,0.00,VWS V14.01,2013-02-03 05:33:00,
2013-02-03 00:38:00,41.8,35.7,30.03,NNW,338,1.5,1.9,79,0.00,,---,0.00,VWS V14.01,2013-02-03 05:38:00,
2013-02-03 00:43:00,41.8,36.0,30.03,WNW,292,1.5,4.2,80,0.00,,---,0.00,VWS V14.01,2013-02-03 05:43:00,
2013-02-03 00:48:00,41.7,36.1,30.02,West,270,0.7,0.8,81,0.00,,---,0.00,VWS V14.01,2013-02-03 05:48:00,
2013-02-03 00:53:00,41.5,35.6,30.01,West,270,1.5,1.9,80,0.00,,---,0.00,VWS V14.01,2013-02-03 05:53:00,
2013-02-03 00:58:00,41.5,35.3,30.01,West,270,0.0,0.0,79,0.00,,---,0.00,VWS V14.01,2013-02-03 05:58:00,
2013-02-03 01:03:00,41.3,35.1,30.01,West,270,0.0,0.0,79,0.00,,---,0.00,VWS V14.01,2013-02-03 06:03:00,
2013-02-03 01:08:00,41.1,34.9,30.01,West,270,0.0,0.0,79,0.00,,---,0.00,VWS V14.01,2013-02-03 06:08:00,
2013-02-03 01:13:00,41.1,34.9,30.01,West,270,0.0,0.0,79,0.00,,---,0.00,VWS V14.01,2013-02-03 06:13:00,
2013-02-03 01:18:00,41.0,35.1,30.01,West,270,0.0,0.4,80,0.00,,---,0.00,VWS V14.01,2013-02-03 06:18:00,
2013-02-03 01:23:00,41.0,35.1,30.00,West,270,0.0,0.0,80,0.00,,---,0.00,VWS V14.01,2013-02-03 06:23:00,
2013-02-03 01:28:00,40.8,35.0,30.00,WSW,248,0.0,0.0,80,0.00,,---,0.00,VWS V14.01,2013-02-03 06:28:00,
2013-02-03 01:33:00,40.8,35.3,29.99,WSW,248,0.0,0.0,81,0.00,,---,0.00,VWS V14.01,2013-02-03 06:33:00,
2013-02-03 01:38:00,40.8,35.6,29.99,WSW,248,0.0,0.8,82,0.00,,---,0.00,VWS V14.01,2013-02-03 06:38:00,
2013-02-03 01:43:00,40.8,35.6,29.99,SW,225,0.0,0.0,82,0.00,,---,0.00,VWS V14.01,2013-02-03 06:43:00,
2013-02-03 01:48:00,40.8,35.9,29.99,West,270,0.7,0.8,83,0.00,,---,0.00,VWS V14.01,2013-02-03 06:48:00,
2013-02-03 01:53:00,40.8,35.6,29.99,WSW,248,0.0,0.0,82,0.00,,---,0.00,VWS V14.01,2013-02-03 06:53:00,
2013-02-03 01:58:00,40.8,35.3,29.98,West,270,0.7,0.8,81,0.00,,---,0.00,VWS V14.01,2013-02-03 06:58:00,
2013-02-03 02:03:00,40.8,35.6,29.98,West,270,1.2,1.5,82,0.00,,---,0.00,VWS V14.01,2013-02-03 07:03:00,
2013-02-03 02:08:00,40.8,35.9,29.98,WSW,248,0.0,0.0,83,0.00,,---,0.00,VWS V14.01,2013-02-03 07:08:00,
2013-02-03 02:13:00,41.0,35.8,29.98,WSW,248,0.0,0.0,82,0.00,,---,0.00,VWS V14.01,2013-02-03 07:13:00,
2013-02-03 02:18:00,40.8,35.6,29.97,West,270,1.5,1.9,82,0.00,,---,0.00,VWS V14.01,2013-02-03 07:18:00,
2013-02-03 02:23:00,40.8,35.9,29.98,WSW,248,1.8,2.3,83,0.00,,---,0.00,VWS V14.01,2013-02-03 07:23:00,
2013-02-03 02:28:00,41.0,35.8,29.97,NW,315,0.7,1.9,82,0.00,,---,0.00,VWS V14.01,2013-02-03 07:28:00,
2013-02-03 02:33:00,41.0,36.1,29.97,WNW,292,0.3,0.4,83,0.00,,---,0.00,VWS V14.01,2013-02-03 07:33:00,
2013-02-03 02:38:00,41.0,35.8,29.97,West,270,0.7,0.8,82,0.00,,---,0.00,VWS V14.01,2013-02-03 07:38:00,
2013-02-03 02:43:00,41.0,36.1,29.97,West,270,0.0,0.0,83,0.00,,---,0.00,VWS V14.01,2013-02-03 07:43:00,
2013-02-03 02:48:00,41.0,36.1,29.97,WNW,292,0.3,0.4,83,0.00,,---,0.00,VWS V14.01,2013-02-03 07:48:00,
2013-02-03 02:53:00,40.8,35.9,29.96,North,0,0.7,1.5,83,0.00,,---,0.00,VWS V14.01,2013-02-03 07:53:00,
2013-02-03 02:58:00,40.6,35.4,29.96,WNW,292,0.0,0.0,82,0.00,,---,0.00,VWS V14.01,2013-02-03 07:58:00,
2013-02-03 03:03:00,40.4,35.2,29.96,WNW,292,0.0,0.0,82,0.00,,---,0.00,VWS V14.01,2013-02-03 08:03:00,
2013-02-03 03:08:00,40.1,34.9,29.96,WNW,292,0.0,0.0,82,0.00,,---,0.00,VWS V14.01,2013-02-03 08:08:00,
2013-02-03 03:13:00,39.9,34.7,29.96,WNW,292,0.0,0.0,82,0.00,,---,0.00,VWS V14.01,2013-02-03 08:13:00,
2013-02-03 03:18:00,39.5,34.3,29.96,WNW,292,0.0,0.0,82,0.00,,---,0.00,VWS V14.01,2013-02-03 08:18:00,
2013-02-03 03:23:00,39.2,33.7,29.96,West,270,0.0,0.0,81,0.00,,---,0.00,VWS V14.01,2013-02-03 08:23:00,
2013-02-03 03:28:00,38.8,33.7,29.96,WNW,292,0.0,0.8,82,0.00,,---,0.00,VWS V14.01,2013-02-03 08:28:00,
2013-02-03 03:33:00,38.4,33.3,29.95,WNW,292,0.0,0.0,82,0.00,,---,0.00,VWS V14.01,2013-02-03 08:33:00,
2013-02-03 03:38:00,38.1,33.0,29.95,WNW,292,0.0,0.0,82,0.00,,---,0.00,VWS V14.01,2013-02-03 08:38:00,
2013-02-03 03:43:00,37.7,32.6,29.95,WNW,292,0.0,0.0,82,0.00,,---,0.00,VWS V14.01,2013-02-03 08:43:00,
2013-02-03 03:48:00,37.4,32.3,29.95,WNW,292,0.0,0.0,82,0.00,,---,0.00,VWS V14.01,2013-02-03 08:48:00,
2013-02-03 03:53:00,37.0,32.0,29.95,WNW,292,0.0,0.0,82,0.00,,---,0.00,VWS V14.01,2013-02-03 08:53:00,
2013-02-03 03:58:00,37.0,32.0,29.94,WNW,292,0.0,0.0,82,0.00,,---,0.00,VWS V14.01,2013-02-03 08:58:00,
2013-02-03 04:03:00,36.5,31.8,29.94,WNW,292,0.0,0.0,83,0.00,,---,0.00,VWS V14.01,2013-02-03 09:03:00,
2013-02-03 04:08:00,36.4,31.6,29.94,WNW,292,0.0,0.0,83,0.00,,---,0.00,VWS V14.01,2013-02-03 09:08:00,
2013-02-03 04:13:00,36.2,31.4,29.94,WNW,292,0.0,0.0,83,0.00,,---,0.00,VWS V14.01,2013-02-03 09:13:00,
2013-02-03 04:18:00,35.8,31.3,29.94,WNW,292,0.0,0.0,84,0.00,,---,0.00,VWS V14.01,2013-02-03 09:18:00,
2013-02-03 04:23:00,35.7,30.9,29.94,WNW,292,0.0,0.0,83,0.00,,---,0.00,VWS V14.01,2013-02-03 09:23:00,
2013-02-03 04:28:00,35.5,31.0,29.93,WNW,292,0.0,0.0,84,0.00,,---,0.00,VWS V14.01,2013-02-03 09:28:00,
2013-02-03 04:33:00,35.3,30.8,29.93,WNW,292,0.0,0.0,84,0.00,,---,0.00,VWS V14.01,2013-02-03 09:33:00,
2013-02-03 04:38:00,35.1,30.6,29.92,NW,315,0.7,0.8,84,0.00,,---,0.00,VWS V14.01,2013-02-03 09:38:00,
2013-02-03 04:43:00,34.9,31.0,29.93,NW,315,0.0,0.0,86,0.00,,---,0.00,VWS V14.01,2013-02-03 09:43:00,
2013-02-03 04:48:00,34.6,30.8,29.93,WSW,248,0.0,0.8,86,0.00,,---,0.00,VWS V14.01,2013-02-03 09:48:00,
2013-02-03 04:53:00,34.2,30.4,29.93,WSW,248,0.0,0.0,86,0.00,,---,0.00,VWS V14.01,2013-02-03 09:53:00,
2013-02-03 04:58:00,34.2,30.4,29.92,WSW,248,0.0,0.0,86,0.00,,---,0.00,VWS V14.01,2013-02-03 09:58:00,
2013-02-03 05:03:00,33.9,30.1,29.93,WSW,248,0.0,0.0,86,0.00,,---,0.00,VWS V14.01,2013-02-03 10:03:00,
2013-02-03 05:08:00,33.5,29.7,29.93,WSW,248,0.0,0.0,86,0.00,,---,0.00,VWS V14.01,2013-02-03 10:08:00,
2013-02-03 05:13:00,33.3,29.8,29.93,WSW,248,0.0,0.0,87,0.00,,---,0.00,VWS V14.01,2013-02-03 10:13:00,
2013-02-03 05:18:00,33.1,29.9,29.93,WSW,248,0.0,0.0,88,0.00,,---,0.00,VWS V14.01,2013-02-03 10:18:00,
2013-02-03 05:23:00,33.1,29.6,29.93,WSW,248,0.0,0.0,87,0.00,,---,0.00,VWS V14.01,2013-02-03 10:23:00,
2013-02-03 05:28:00,33.0,29.5,29.93,WSW,248,0.0,0.0,87,0.00,,---,0.00,VWS V14.01,2013-02-03 10:28:00,
2013-02-03 05:33:00,32.8,29.0,29.92,WSW,248,0.0,0.0,86,0.00,,---,0.00,VWS V14.01,2013-02-03 10:33:00,
2013-02-03 05:38:00,32.8,29.0,29.92,WSW,248,0.0,0.0,86,0.00,,---,0.00,VWS V14.01,2013-02-03 10:38:00,
2013-02-03 05:43:00,32.6,29.1,29.93,WSW,248,0.0,0.0,87,0.00,,---,0.00,VWS V14.01,2013-02-03 10:43:00,
2013-02-03 05:48:00,32.4,28.9,29.93,WSW,248,0.0,0.0,87,0.00,,---,0.00,VWS V14.01,2013-02-03 10:48:00,
2013-02-03 05:53:00,32.4,28.9,29.93,WSW,248,0.0,0.0,87,0.00,,---,0.00,VWS V14.01,2013-02-03 10:53:00,
2013-02-03 05:58:00,32.4,28.9,29.93,WSW,248,0.0,0.0,87,0.00,,---,0.00,VWS V14.01,2013-02-03 10:58:00,
2013-02-03 06:03:00,32.6,29.4,29.93,WSW,248,0.0,0.0,88,0.00,,---,0.00,VWS V14.01,2013-02-03 11:03:00,
2013-02-03 06:08:00,32.8,29.6,29.93,WSW,248,0.0,0.0,88,0.00,,---,0.00,VWS V14.01,2013-02-03 11:08:00,
2013-02-03 06:13:00,32.8,29.3,29.93,WSW,248,0.0,0.0,87,0.00,,---,0.00,VWS V14.01,2013-02-03 11:13:00,
2013-02-03 06:18:00,32.6,29.4,29.93,WSW,248,0.0,0.0,88,0.00,,---,0.00,VWS V14.01,2013-02-03 11:18:00,
2013-02-03 06:23:00,32.4,29.2,29.93,WSW,248,0.0,0.0,88,0.00,,---,0.00,VWS V14.01,2013-02-03 11:23:00,
2013-02-03 06:28:00,32.1,28.6,29.93,WSW,248,0.0,0.0,87,0.00,,---,0.00,VWS V14.01,2013-02-03 11:28:00,
2013-02-03 06:33:00,32.1,28.6,29.93,WSW,248,0.0,0.0,87,0.00,,---,0.00,VWS V14.01,2013-02-03 11:33:00,
2013-02-03 06:38:00,32.1,28.6,29.92,WSW,248,0.0,0.0,87,0.00,,---,0.00,VWS V14.01,2013-02-03 11:38:00,
2013-02-03 06:43:00,32.0,28.4,29.92,WSW,248,0.3,0.4,87,0.00,,---,0.00,VWS V14.01,2013-02-03 11:43:00,
2013-02-03 06:48:00,31.8,28.5,29.93,WSW,248,0.0,0.0,88,0.00,,---,0.00,VWS V14.01,2013-02-03 11:48:00,
2013-02-03 06:53:00,31.4,28.1,29.93,WSW,248,0.0,0.0,88,0.00,,---,0.00,VWS V14.01,2013-02-03 11:53:00,
2013-02-03 06:58:00,31.3,28.0,29.93,WSW,248,0.0,0.0,88,0.00,,---,0.00,VWS V14.01,2013-02-03 11:58:00,
2013-02-03 07:03:00,31.1,27.9,29.94,WSW,248,0.0,0.0,88,0.00,,---,0.00,VWS V14.01,2013-02-03 12:03:00,
2013-02-03 07:08:00,30.7,27.8,29.94,WSW,248,0.0,0.0,89,0.00,,---,0.00,VWS V14.01,2013-02-03 12:08:00,
2013-02-03 07:13:00,30.7,27.8,29.94,WSW,248,0.0,0.0,89,0.00,,---,0.00,VWS V14.01,2013-02-03 12:13:00,
2013-02-03 07:18:00,30.5,27.6,29.95,WSW,248,0.0,0.0,89,0.00,,---,0.00,VWS V14.01,2013-02-03 12:18:00,
2013-02-03 07:23:00,30.5,27.8,29.95,WSW,248,0.0,0.0,90,0.00,,---,0.00,VWS V14.01,2013-02-03 12:23:00,
2013-02-03 07:28:00,30.5,27.3,29.95,West,270,0.0,0.0,88,0.00,,---,0.00,VWS V14.01,2013-02-03 12:28:00,
2013-02-03 07:33:00,30.5,28.1,29.95,WSW,248,0.0,0.0,91,0.00,,---,0.00,VWS V14.01,2013-02-03 12:33:00,
2013-02-03 07:38:00,30.7,28.3,29.95,West,270,0.0,0.0,91,0.00,,---,0.00,VWS V14.01,2013-02-03 12:38:00,
2013-02-03 07:43:00,30.9,28.5,29.95,WNW,292,0.3,0.4,91,0.00,,---,0.00,VWS V14.01,2013-02-03 12:43:00,
2013-02-03 07:48:00,31.3,28.9,29.95,West,270,0.7,0.8,91,0.00,,---,0.00,VWS V14.01,2013-02-03 12:48:00,
2013-02-03 07:53:00,31.6,29.2,29.96,WSW,248,0.7,0.8,91,0.00,,---,0.00,VWS V14.01,2013-02-03 12:53:00,
2013-02-03 07:58:00,32.1,29.8,29.96,North,0,3.3,4.2,91,0.00,,---,0.00,VWS V14.01,2013-02-03 12:58:00,
2013-02-03 08:03:00,33.5,31.4,29.95,NNW,338,4.5,5.7,92,0.00,,---,0.00,VWS V14.01,2013-02-03 13:03:00,
2013-02-03 08:08:00,34.4,32.3,29.95,West,270,1.8,2.3,92,0.00,,---,0.00,VWS V14.01,2013-02-03 13:08:00,
2013-02-03 08:13:00,35.1,32.9,29.96,WNW,292,1.8,2.3,92,0.00,,---,0.00,VWS V14.01,2013-02-03 13:13:00,
2013-02-03 08:18:00,35.8,33.6,29.96,NNW,338,1.2,1.5,92,0.00,,---,0.00,VWS V14.01,2013-02-03 13:18:00,
2013-02-03 08:23:00,36.7,34.8,29.96,WSW,248,3.6,4.6,93,0.00,,---,0.00,VWS V14.01,2013-02-03 13:23:00,
2013-02-03 08:28:00,37.4,35.3,29.96,NW,315,5.9,7.6,92,0.00,,---,0.00,VWS V14.01,2013-02-03 13:28:00,
2013-02-03 08:33:00,38.1,35.7,29.96,WNW,292,0.7,0.8,91,0.00,,---,0.00,VWS V14.01,2013-02-03 13:33:00,
2013-02-03 08:38:00,38.6,36.2,29.96,WNW,292,3.0,3.8,91,0.00,,---,0.00,VWS V14.01,2013-02-03 13:38:00,
2013-02-03 08:43:00,39.2,36.2,29.96,NW,315,1.2,1.5,89,0.00,,---,0.00,VWS V14.01,2013-02-03 13:43:00,
2013-02-03 08:48:00,39.9,36.8,29.95,NW,315,1.5,1.9,89,0.00,,---,0.00,VWS V14.01,2013-02-03 13:48:00,
2013-02-03 08:53:00,40.4,36.7,29.96,SW,225,3.0,3.8,87,0.00,,---,0.00,VWS V14.01,2013-02-03 13:53:00,
2013-02-03 08:58:00,41.3,37.6,29.95,NW,315,1.8,4.2,87,0.00,,---,0.00,VWS V14.01,2013-02-03 13:58:00,
2013-02-03 09:03:00,41.8,37.6,29.95,WNW,292,2.1,4.6,85,0.00,,---,0.00,VWS V14.01,2013-02-03 14:03:00,
2013-02-03 09:08:00,42.3,38.0,29.95,NW,315,1.8,2.3,85,0.00,,---,0.00,VWS V14.01,2013-02-03 14:08:00,
2013-02-03 09:13:00,42.7,38.1,29.95,NNW,338,5.6,7.1,84,0.00,,---,0.00,VWS V14.01,2013-02-03 14:13:00,
2013-02-03 09:18:00,42.8,37.9,29.95,West,270,3.6,5.2,83,0.00,,---,0.00,VWS V14.01,2013-02-03 14:18:00,
2013-02-03 09:23:00,43.4,38.5,29.95,WNW,292,3.6,4.6,83,0.00,,---,0.00,VWS V14.01,2013-02-03 14:23:00,
2013-02-03 09:28:00,43.9,38.3,29.95,NW,315,3.0,3.8,81,0.00,,---,0.00,VWS V14.01,2013-02-03 14:28:00,
2013-02-03 09:33:00,44.1,38.2,29.95,NNW,338,3.0,3.8,80,0.00,,---,0.00,VWS V14.01,2013-02-03 14:33:00,
2013-02-03 09:38:00,44.3,38.1,29.95,NNW,338,3.3,5.2,79,0.00,,---,0.00,VWS V14.01,2013-02-03 14:38:00,
2013-02-03 09:43:00,44.5,38.2,29.95,WNW,292,4.1,5.2,79,0.00,,---,0.00,VWS V14.01,2013-02-03 14:43:00,
2013-02-03 09:48:00,45.2,39.2,29.95,NW,315,2.6,3.8,80,0.00,,---,0.00,VWS V14.01,2013-02-03 14:48:00,
2013-02-03 09:53:00,45.5,38.9,29.95,WNW,292,5.6,7.1,78,0.00,,---,0.00,VWS V14.01,2013-02-03 14:53:00,
2013-02-03 09:58:00,45.7,38.7,29.95,West,270,2.6,3.4,76,0.00,,---,0.00,VWS V14.01,2013-02-03 14:58:00,
2013-02-03 10:03:00,46.1,39.1,29.95,West,270,2.6,3.4,76,0.00,,---,0.00,VWS V14.01,2013-02-03 15:03:00,
2013-02-03 10:08:00,46.3,38.7,29.95,WNW,292,4.1,11.3,74,0.00,,---,0.00,VWS V14.01,2013-02-03 15:08:00,
2013-02-03 10:13:00,46.9,39.6,29.95,NNW,338,3.6,4.6,75,0.00,,---,0.00,VWS V14.01,2013-02-03 15:13:00,
2013-02-03 10:18:00,47.1,39.1,29.95,WNW,292,1.2,1.5,73,0.00,,---,0.00,VWS V14.01,2013-02-03 15:18:00,
2013-02-03 10:23:00,47.4,39.4,29.95,NW,315,4.5,7.6,73,0.00,,---,0.00,VWS V14.01,2013-02-03 15:23:00,
2013-02-03 10:28:00,48.3,38.8,29.95,WSW,248,6.3,8.0,69,0.00,,---,0.00,VWS V14.01,2013-02-03 15:28:00,
2013-02-03 10:33:00,47.8,38.7,29.95,West,270,6.6,8.4,70,0.00,,---,0.00,VWS V14.01,2013-02-03 15:33:00,
2013-02-03 10:39:00,48.0,39.6,29.94,NW,315,4.1,5.2,72,0.00,,---,0.00,VWS V14.01,2013-02-03 15:39:00,
2013-02-03 10:44:00,48.5,39.0,29.94,NW,315,3.0,3.8,69,0.00,,---,0.00,VWS V14.01,2013-02-03 15:44:00,
2013-02-03 10:49:00,48.9,39.3,29.94,WNW,292,4.1,10.7,69,0.00,,---,0.00,VWS V14.01,2013-02-03 15:49:00,
2013-02-03 10:54:00,49.4,39.4,29.94,NW,315,6.6,8.4,68,0.00,,---,0.00,VWS V14.01,2013-02-03 15:54:00,
2013-02-03 10:59:00,50.1,40.5,29.94,North,0,0.7,3.8,69,0.00,,---,0.00,VWS V14.01,2013-02-03 15:59:00,
2013-02-03 11:04:00,50.1,40.1,29.95,NNE,22,1.8,2.3,68,0.00,,---,0.00,VWS V14.01,2013-02-03 16:04:00,
2013-02-03 11:09:00,49.4,38.6,29.95,West,270,5.6,7.1,66,0.00,,---,0.00,VWS V14.01,2013-02-03 16:09:00,
2013-02-03 11:14:00,48.9,38.6,29.94,NW,315,6.3,8.0,67,0.00,,---,0.00,VWS V14.01,2013-02-03 16:14:00,
2013-02-03 11:19:00,49.9,38.7,29.94,WSW,248,10.7,13.6,65,0.00,,---,0.00,VWS V14.01,2013-02-03 16:19:00,
2013-02-03 11:24:00,50.1,37.7,29.94,West,270,7.8,9.9,62,0.00,,---,0.00,VWS V14.01,2013-02-03 16:24:00,
2013-02-03 11:29:00,51.0,38.9,29.93,NW,315,1.8,2.3,63,0.00,,---,0.00,VWS V14.01,2013-02-03 16:29:00,
2013-02-03 11:34:00,50.5,37.6,29.93,WNW,292,5.6,7.1,61,0.00,,---,0.00,VWS V14.01,2013-02-03 16:34:00,
2013-02-03 11:39:00,51.0,37.7,29.93,WNW,292,4.1,5.2,60,0.00,,---,0.00,VWS V14.01,2013-02-03 16:39:00,
2013-02-03 11:44:00,50.7,37.0,29.93,NW,315,1.8,2.3,59,0.00,,---,0.00,VWS V14.01,2013-02-03 16:44:00,
2013-02-03 11:49:00,50.8,37.5,29.92,WNW,292,5.9,7.6,60,0.00,,---,0.00,VWS V14.01,2013-02-03 16:49:00,
2013-02-03 11:54:00,51.8,36.2,29.92,West,270,8.9,11.3,55,0.00,,---,0.00,VWS V14.01,2013-02-03 16:54:00,
2013-02-03 11:59:00,52.0,36.9,29.92,WNW,292,3.6,4.6,56,0.00,,---,0.00,VWS V14.01,2013-02-03 16:59:00,
2013-02-03 12:04:00,52.9,37.2,29.91,NW,315,7.8,9.9,55,0.00,,---,0.00,VWS V14.01,2013-02-03 17:04:00,
2013-02-03 12:09:00,53.3,35.7,29.90,WNW,292,3.6,7.1,51,0.00,,---,0.00,VWS V14.01,2013-02-03 17:09:00,
2013-02-03 12:14:00,53.3,35.2,29.90,North,0,4.5,8.0,50,0.00,,---,0.00,VWS V14.01,2013-02-03 17:14:00,
2013-02-03 12:19:00,53.4,36.2,29.90,West,270,3.0,3.8,52,0.00,,---,0.00,VWS V14.01,2013-02-03 17:19:00,
2013-02-03 12:24:00,54.7,36.9,29.90,North,0,3.3,4.2,51,0.00,,---,0.00,VWS V14.01,2013-02-03 17:24:00,
2013-02-03 12:29:00,54.0,34.2,29.89,WSW,248,7.1,9.0,47,0.00,,---,0.00,VWS V14.01,2013-02-03 17:29:00,
2013-02-03 12:34:00,53.3,35.2,29.89,NNW,338,9.9,12.6,50,0.00,,---,0.00,VWS V14.01,2013-02-03 17:34:00,
2013-02-03 12:39:00,53.6,34.4,29.89,NW,315,4.1,7.6,48,0.00,,---,0.00,VWS V14.01,2013-02-03 17:39:00,
2013-02-03 12:44:00,54.0,35.3,29.89,West,270,7.4,9.4,49,0.00,,---,0.00,VWS V14.01,2013-02-03 17:44:00,
2013-02-03 12:49:00,54.3,35.5,29.88,WNW,292,3.6,4.6,49,0.00,,---,0.00,VWS V14.01,2013-02-03 17:49:00,
2013-02-03 12:54:00,55.2,36.3,29.88,NW,315,8.9,11.3,49,0.00,,---,0.00,VWS V14.01,2013-02-03 17:54:00,
2013-02-03 12:59:00,55.4,35.5,29.88,WSW,248,6.3,8.0,47,0.00,,---,0.00,VWS V14.01,2013-02-03 17:59:00,
2013-02-03 13:04:00,55.6,36.2,29.88,WSW,248,7.1,9.0,48,0.00,,---,0.00,VWS V14.01,2013-02-03 18:04:00,
2013-02-03 13:09:00,54.3,32.8,29.88,West,270,3.0,3.8,44,0.00,,---,0.00,VWS V14.01,2013-02-03 18:09:00,
2013-02-03 13:14:00,53.4,32.0,29.87,West,270,8.1,10.3,44,0.00,,---,0.00,VWS V14.01,2013-02-03 18:14:00,
2013-02-03 13:19:00,53.3,33.6,29.86,NNW,338,8.1,10.3,47,0.00,,---,0.00,VWS V14.01,2013-02-03 18:19:00,
2013-02-03 13:24:00,54.0,31.9,29.86,West,270,4.1,5.2,43,0.00,,---,0.00,VWS V14.01,2013-02-03 18:24:00,
2013-02-03 13:29:00,55.2,33.0,29.86,SW,225,5.9,14.1,43,0.00,,---,0.00,VWS V14.01,2013-02-03 18:29:00,
2013-02-03 13:34:00,55.6,33.9,29.86,WNW,292,1.8,2.3,44,0.00,,---,0.00,VWS V14.01,2013-02-03 18:34:00,
2013-02-03 13:39:00,56.1,33.2,29.86,North,0,8.1,10.3,42,0.00,,---,0.00,VWS V14.01,2013-02-03 18:39:00,
2013-02-03 13:44:00,56.5,34.7,29.85,NNW,338,3.0,3.8,44,0.00,,---,0.00,VWS V14.01,2013-02-03 18:44:00,
2013-02-03 13:49:00,56.5,32.9,29.85,SSW,202,6.6,8.4,41,0.00,,---,0.00,VWS V14.01,2013-02-03 18:49:00,
2013-02-03 13:54:00,56.5,32.9,29.85,West,270,3.0,3.8,41,0.00,,---,0.00,VWS V14.01,2013-02-03 18:54:00,
2013-02-03 13:59:00,56.5,33.5,29.85,NW,315,5.1,6.5,42,0.00,,---,0.00,VWS V14.01,2013-02-03 18:59:00,
2013-02-03 14:04:00,56.2,32.1,29.85,WNW,292,3.6,8.0,40,0.00,,---,0.00,VWS V14.01,2013-02-03 19:04:00,
2013-02-03 14:09:00,56.1,31.3,29.85,WNW,292,5.6,7.1,39,0.00,,---,0.00,VWS V14.01,2013-02-03 19:09:00,
2013-02-03 14:14:00,54.3,31.6,29.86,NW,315,3.0,3.8,42,0.00,,---,0.00,VWS V14.01,2013-02-03 19:14:00,
2013-02-03 14:19:00,54.0,31.3,29.86,West,270,6.6,8.4,42,0.00,,---,0.00,VWS V14.01,2013-02-03 19:19:00,
2013-02-03 14:24:00,54.0,31.3,29.86,NNW,338,6.3,8.0,42,0.00,,---,0.00,VWS V14.01,2013-02-03 19:24:00,
2013-02-03 14:29:00,53.3,30.1,29.86,North,0,4.8,6.1,41,0.00,,---,0.00,VWS V14.01,2013-02-03 19:29:00,
2013-02-03 14:34:00,52.5,30.0,29.86,WNW,292,7.8,9.9,42,0.00,,---,0.00,VWS V14.01,2013-02-03 19:34:00,
2013-02-03 14:39:00,52.5,31.2,29.86,NNW,338,4.1,5.2,44,0.00,,---,0.00,VWS V14.01,2013-02-03 19:39:00,
2013-02-03 14:44:00,52.4,30.5,29.86,WNW,292,8.9,11.3,43,0.00,,---,0.00,VWS V14.01,2013-02-03 19:44:00,
2013-02-03 14:49:00,51.8,30.6,29.86,NNW,338,3.0,3.8,44,0.00,,---,0.00,VWS V14.01,2013-02-03 19:49:00,
2013-02-03 14:54:00,51.5,30.9,29.86,NW,315,4.1,5.2,45,0.00,,---,0.00,VWS V14.01,2013-02-03 19:54:00,
2013-02-03 14:59:00,51.5,30.9,29.86,WNW,292,6.6,8.4,45,0.00,,---,0.00,VWS V14.01,2013-02-03 19:59:00,
2013-02-03 15:04:00,51.5,30.9,29.86,WNW,292,4.5,5.7,45,0.00,,---,0.00,VWS V14.01,2013-02-03 20:04:00,
2013-02-03 15:09:00,51.5,31.4,29.86,WNW,292,4.1,7.6,46,0.00,,---,0.00,VWS V14.01,2013-02-03 20:09:00,
2013-02-03 15:14:00,51.3,30.1,29.86,NNW,338,5.1,6.5,44,0.00,,---,0.00,VWS V14.01,2013-02-03 20:14:00,
2013-02-03 15:19:00,51.2,29.9,29.86,NNW,338,3.0,3.8,44,0.00,,---,0.00,VWS V14.01,2013-02-03 20:19:00,
2013-02-03 15:24:00,51.2,29.9,29.87,WNW,292,4.1,5.2,44,0.00,,---,0.00,VWS V14.01,2013-02-03 20:24:00,
2013-02-03 15:29:00,52.4,31.7,29.87,WNW,292,3.6,8.4,45,0.00,,---,0.00,VWS V14.01,2013-02-03 20:29:00,
2013-02-03 15:34:00,53.1,31.7,29.87,West,270,3.6,4.6,44,0.00,,---,0.00,VWS V14.01,2013-02-03 20:34:00,
2013-02-03 15:39:00,52.9,31.0,29.87,WNW,292,5.9,9.0,43,0.00,,---,0.00,VWS V14.01,2013-02-03 20:39:00,
2013-02-03 15:44:00,53.6,32.2,29.87,NW,315,4.1,5.2,44,0.00,,---,0.00,VWS V14.01,2013-02-03 20:44:00,
2013-02-03 15:49:00,54.5,33.5,29.87,NW,315,4.1,5.2,45,0.00,,---,0.00,VWS V14.01,2013-02-03 20:49:00,
2013-02-03 15:54:00,55.1,33.5,29.87,North,0,4.1,5.2,44,0.00,,---,0.00,VWS V14.01,2013-02-03 20:54:00,
2013-02-03 15:59:00,54.0,31.9,29.87,NW,315,4.5,5.7,43,0.00,,---,0.00,VWS V14.01,2013-02-03 20:59:00,
2013-02-03 16:04:00,53.6,32.2,29.87,NW,315,3.0,3.8,44,0.00,,---,0.00,VWS V14.01,2013-02-03 21:04:00,
2013-02-03 16:09:00,54.2,33.3,29.87,WNW,292,1.5,1.9,45,0.00,,---,0.00,VWS V14.01,2013-02-03 21:09:00,
2013-02-03 16:14:00,55.4,33.2,29.87,NNW,338,5.6,7.1,43,0.00,,---,0.00,VWS V14.01,2013-02-03 21:14:00,
2013-02-03 16:19:00,55.1,32.3,29.87,NW,315,6.3,8.0,42,0.00,,---,0.00,VWS V14.01,2013-02-03 21:19:00,
2013-02-03 16:24:00,55.1,32.9,29.87,WNW,292,3.0,3.8,43,0.00,,---,0.00,VWS V14.01,2013-02-03 21:24:00,
2013-02-03 16:29:00,54.7,32.0,29.87,NW,315,4.5,5.7,42,0.00,,---,0.00,VWS V14.01,2013-02-03 21:29:00,
2013-02-03 16:34:00,54.5,33.0,29.87,West,270,1.2,1.5,44,0.00,,---,0.00,VWS V14.01,2013-02-03 21:34:00,
2013-02-03 16:39:00,54.2,32.1,29.87,WSW,248,1.5,1.9,43,0.00,,---,0.00,VWS V14.01,2013-02-03 21:39:00,
2013-02-03 16:44:00,53.3,31.9,29.87,North,0,1.8,2.3,44,0.00,,---,0.00,VWS V14.01,2013-02-03 21:44:00,
2013-02-03 16:49:00,52.2,32.0,29.87,SW,225,3.0,3.8,46,0.00,,---,0.00,VWS V14.01,2013-02-03 21:49:00,
2013-02-03 16:54:00,51.7,31.5,29.87,WNW,292,1.8,2.3,46,0.00,,---,0.00,VWS V14.01,2013-02-03 21:54:00,
2013-02-03 16:59:00,51.2,31.0,29.87,WNW,292,0.7,0.8,46,0.00,,---,0.00,VWS V14.01,2013-02-03 21:59:00,
2013-02-03 17:04:00,50.5,31.0,29.87,West,270,2.1,2.7,47,0.00,,---,0.00,VWS V14.01,2013-02-03 22:04:00,
2013-02-03 17:09:00,50.3,30.8,29.87,NW,315,1.2,1.5,47,0.00,,---,0.00,VWS V14.01,2013-02-03 22:09:00,
2013-02-03 17:14:00,49.9,31.0,29.87,NNW,338,0.7,0.8,48,0.00,,---,0.00,VWS V14.01,2013-02-03 22:14:00,
2013-02-03 17:19:00,49.6,30.7,29.87,NNW,338,0.0,0.0,48,0.00,,---,0.00,VWS V14.01,2013-02-03 22:19:00,
2013-02-03 17:24:00,49.0,30.7,29.87,West,270,0.0,0.0,49,0.00,,---,0.00,VWS V14.01,2013-02-03 22:24:00,
2013-02-03 17:29:00,48.7,31.4,29.87,West,270,0.0,0.0,51,0.00,,---,0.00,VWS V14.01,2013-02-03 22:29:00,
2013-02-03 17:34:00,48.0,30.8,29.87,West,270,0.0,0.0,51,0.00,,---,0.00,VWS V14.01,2013-02-03 22:34:00,
2013-02-03 17:39:00,47.4,31.2,29.87,West,270,0.0,0.0,53,0.00,,---,0.00,VWS V14.01,2013-02-03 22:39:00,
2013-02-03 17:44:00,46.8,30.5,29.88,West,270,0.0,0.0,53,0.00,,---,0.00,VWS V14.01,2013-02-03 22:44:00,
2013-02-03 17:49:00,46.3,30.6,29.88,West,270,0.0,0.0,54,0.00,,---,0.00,VWS V14.01,2013-02-03 22:49:00,
2013-02-03 17:54:00,45.9,30.7,29.88,West,270,0.0,0.0,55,0.00,,---,0.00,VWS V14.01,2013-02-03 22:54:00,
2013-02-03 17:59:00,45.4,30.7,29.88,West,270,0.0,0.0,56,0.00,,---,0.00,VWS V14.01,2013-02-03 22:59:00,
2013-02-03 18:04:00,44.8,30.5,29.88,West,270,0.0,0.0,57,0.00,,---,0.00,VWS V14.01,2013-02-03 23:04:00,
2013-02-03 18:09:00,44.3,30.1,29.88,West,270,0.0,0.0,57,0.00,,---,0.00,VWS V14.01,2013-02-03 23:09:00,
2013-02-03 18:15:00,43.7,29.5,29.88,West,270,0.0,0.0,57,0.00,,---,0.00,VWS V14.01,2013-02-03 23:15:00,
2013-02-03 18:20:00,43.2,29.1,29.89,West,270,0.0,0.0,57,0.00,,---,0.00,VWS V14.01,2013-02-03 23:20:00,
2013-02-03 18:25:00,42.7,29.0,29.89,West,270,0.0,0.0,58,0.00,,---,0.00,VWS V14.01,2013-02-03 23:25:00,
2013-02-03 18:30:00,42.1,28.5,29.90,West,270,0.0,0.0,58,0.00,,---,0.00,VWS V14.01,2013-02-03 23:30:00,
2013-02-03 18:35:00,41.7,28.5,29.90,West,270,0.0,0.0,59,0.00,,---,0.00,VWS V14.01,2013-02-03 23:35:00,
2013-02-03 18:40:00,41.3,28.5,29.90,West,270,0.0,0.0,60,0.00,,---,0.00,VWS V14.01,2013-02-03 23:40:00,
2013-02-03 18:45:00,40.8,28.5,29.90,West,270,0.0,0.0,61,0.00,,---,0.00,VWS V14.01,2013-02-03 23:45:00,
2013-02-03 18:50:00,40.4,28.5,29.90,West,270,0.0,0.0,62,0.00,,---,0.00,VWS V14.01,2013-02-03 23:50:00,
2013-02-03 18:55:00,39.9,28.8,29.90,West,270,0.0,0.0,64,0.00,,---,0.00,VWS V14.01,2013-02-03 23:55:00,
2013-02-03 19:00:00,39.5,28.4,29.91,West,270,0.0,0.0,64,0.00,,---,0.00,VWS V14.01,2013-02-04 00:00:00,
2013-02-03 19:05:00,39.2,28.2,29.91,West,270,0.0,0.0,64,0.00,,---,0.00,VWS V14.01,2013-02-04 00:05:00,
2013-02-03 19:10:00,38.6,27.6,29.91,West,270,0.0,0.0,64,0.00,,---,0.00,VWS V14.01,2013-02-04 00:10:00,
2013-02-03 19:15:00,38.4,27.8,29.91,West,270,0.0,0.0,65,0.00,,---,0.00,VWS V14.01,2013-02-04 00:15:00,
2013-02-03 19:20:00,37.9,28.4,29.91,West,270,0.0,0.0,68,0.00,,---,0.00,VWS V14.01,2013-02-04 00:20:00,
2013-02-03 19:25:00,37.7,28.3,29.91,West,270,0.0,0.0,68,0.00,,---,0.00,VWS V14.01,2013-02-04 00:25:00,
2013-02-03 19:30:00,37.5,27.7,29.91,West,270,0.0,0.0,67,0.00,,---,0.00,VWS V14.01,2013-02-04 00:30:00,
2013-02-03 19:35:00,37.2,27.8,29.91,West,270,0.0,0.0,68,0.00,,---,0.00,VWS V14.01,2013-02-04 00:35:00,
2013-02-03 19:40:00,37.0,27.6,29.91,West,270,0.0,0.0,68,0.00,,---,0.00,VWS V14.01,2013-02-04 00:40:00,
2013-02-03 19:45:00,36.8,27.8,29.91,West,270,0.0,0.0,69,0.00,,---,0.00,VWS V14.01,2013-02-04 00:45:00,
2013-02-03 19:50:00,36.5,28.2,29.92,West,270,0.0,0.0,71,0.00,,---,0.00,VWS V14.01,2013-02-04 00:50:00,
2013-02-03 19:55:00,36.4,28.4,29.92,West,270,0.0,0.0,72,0.00,,---,0.00,VWS V14.01,2013-02-04 00:55:00,
2013-02-03 20:00:00,36.4,28.4,29.92,West,270,0.0,0.0,72,0.00,,---,0.00,VWS V14.01,2013-02-04 01:00:00,
2013-02-03 20:05:00,36.2,28.2,29.92,West,270,0.0,0.0,72,0.00,,---,0.00,VWS V14.01,2013-02-04 01:05:00,
2013-02-03 20:10:00,35.8,28.1,29.92,West,270,0.0,0.0,73,0.00,,---,0.00,VWS V14.01,2013-02-04 01:10:00,
2013-02-03 20:15:00,35.5,28.2,29.92,West,270,0.0,0.0,74,0.00,,---,0.00,VWS V14.01,2013-02-04 01:15:00,
2013-02-03 20:20:00,35.3,28.0,29.93,West,270,0.0,0.0,74,0.00,,---,0.00,VWS V14.01,2013-02-04 01:20:00,
2013-02-03 20:25:00,34.9,27.6,29.93,West,270,0.0,0.0,74,0.00,,---,0.00,VWS V14.01,2013-02-04 01:25:00,
2013-02-03 20:30:00,34.8,27.2,29.93,West,270,0.0,0.0,73,0.00,,---,0.00,VWS V14.01,2013-02-04 01:30:00,
2013-02-03 20:35:00,34.4,26.8,29.93,West,270,0.0,0.0,73,0.00,,---,0.00,VWS V14.01,2013-02-04 01:35:00,
2013-02-03 20:40:00,34.2,26.6,29.93,West,270,0.0,0.0,73,0.00,,---,0.00,VWS V14.01,2013-02-04 01:40:00,
2013-02-03 20:45:00,34.0,26.8,29.93,West,270,0.0,0.0,74,0.00,,---,0.00,VWS V14.01,2013-02-04 01:45:00,
2013-02-03 20:50:00,33.9,26.7,29.93,West,270,0.0,0.0,74,0.00,,---,0.00,VWS V14.01,2013-02-04 01:50:00,
2013-02-03 20:55:00,33.7,26.5,29.94,West,270,0.0,0.0,74,0.00,,---,0.00,VWS V14.01,2013-02-04 01:55:00,
2013-02-03 21:00:00,33.5,26.6,29.94,West,270,0.0,0.0,75,0.00,,---,0.00,VWS V14.01,2013-02-04 02:00:00,
2013-02-03 21:05:00,33.5,27.2,29.94,West,270,0.0,0.0,78,0.00,,---,0.00,VWS V14.01,2013-02-04 02:05:00,
2013-02-03 21:10:00,33.5,26.9,29.94,West,270,0.0,0.0,76,0.00,,---,0.00,VWS V14.01,2013-02-04 02:10:00,
2013-02-03 21:15:00,33.1,26.9,29.94,West,270,0.0,0.0,78,0.00,,---,0.00,VWS V14.01,2013-02-04 02:15:00,
2013-02-03 21:20:00,33.1,27.5,29.95,West,270,0.0,0.0,80,0.00,,---,0.00,VWS V14.01,2013-02-04 02:20:00,
2013-02-03 21:25:00,33.0,26.8,29.95,West,270,0.0,0.0,78,0.00,,---,0.00,VWS V14.01,2013-02-04 02:25:00,
2013-02-03 21:30:00,32.8,26.6,29.95,West,270,0.0,0.0,78,0.00,,---,0.00,VWS V14.01,2013-02-04 02:30:00,
2013-02-03 21:35:00,32.8,26.6,29.95,West,270,0.0,0.0,78,0.00,,---,0.00,VWS V14.01,2013-02-04 02:35:00,
2013-02-03 21:40:00,32.8,26.6,29.95,West,270,0.0,0.0,78,0.00,,---,0.00,VWS V14.01,2013-02-04 02:40:00,
2013-02-03 21:45:00,32.6,26.4,29.95,West,270,0.0,0.0,78,0.00,,---,0.00,VWS V14.01,2013-02-04 02:45:00,
2013-02-03 21:50:00,32.4,26.5,29.95,West,270,0.0,0.0,79,0.00,,---,0.00,VWS V14.01,2013-02-04 02:50:00,
2013-02-03 21:55:00,32.2,26.3,29.95,West,270,0.0,0.0,79,0.00,,---,0.00,VWS V14.01,2013-02-04 02:55:00,
2013-02-03 22:00:00,32.2,26.6,29.95,West,270,0.0,0.0,80,0.00,,---,0.00,VWS V14.01,2013-02-04 03:00:00,
2013-02-03 22:05:00,32.1,26.5,29.95,West,270,0.0,0.0,80,0.00,,---,0.00,VWS V14.01,2013-02-04 03:05:00,
2013-02-03 22:10:00,32.1,26.9,29.95,NNW,338,0.3,0.4,81,0.00,,---,0.00,VWS V14.01,2013-02-04 03:10:00,
2013-02-03 22:15:00,32.1,27.5,29.95,NW,315,0.7,0.8,83,0.00,,---,0.00,VWS V14.01,2013-02-04 03:15:00,
2013-02-03 22:20:00,32.0,27.3,29.96,NW,315,0.0,0.0,83,0.00,,---,0.00,VWS V14.01,2013-02-04 03:20:00,
2013-02-03 22:25:00,32.0,27.0,29.96,NW,315,0.0,0.0,82,0.00,,---,0.00,VWS V14.01,2013-02-04 03:25:00,
2013-02-03 22:30:00,31.8,26.5,29.96,WNW,292,0.0,0.0,81,0.00,,---,0.00,VWS V14.01,2013-02-04 03:30:00,
2013-02-03 22:35:00,31.8,26.5,29.96,NW,315,0.3,0.4,81,0.00,,---,0.00,VWS V14.01,2013-02-04 03:35:00,
2013-02-03 22:40:00,31.8,26.8,29.96,WNW,292,0.0,0.0,82,0.00,,---,0.00,VWS V14.01,2013-02-04 03:40:00,
2013-02-03 22:45:00,32.0,27.0,29.96,WNW,292,0.0,0.0,82,0.00,,---,0.00,VWS V14.01,2013-02-04 03:45:00,
2013-02-03 22:50:00,32.2,27.6,29.96,WNW,292,0.0,0.0,83,0.00,,---,0.00,VWS V14.01,2013-02-04 03:50:00,
2013-02-03 22:55:00,32.4,27.8,29.96,WNW,292,0.0,0.0,83,0.00,,---,0.00,VWS V14.01,2013-02-04 03:55:00,
2013-02-03 23:00:00,32.4,27.5,29.96,NW,315,0.0,0.0,82,0.00,,---,0.00,VWS V14.01,2013-02-04 04:00:00,
2013-02-03 23:05:00,32.4,27.5,29.96,West,270,1.2,1.5,82,0.00,,---,0.00,VWS V14.01,2013-02-04 04:05:00,
2013-02-03 23:10:00,32.4,27.8,29.97,WNW,292,1.2,1.5,83,0.00,,---,0.00,VWS V14.01,2013-02-04 04:10:00,
2013-02-03 23:15:00,32.4,28.0,29.97,NNW,338,0.7,0.8,84,0.00,,---,0.00,VWS V14.01,2013-02-04 04:15:00,
2013-02-03 23:20:00,32.6,27.9,29.97,NW,315,0.0,0.0,83,0.00,,---,0.00,VWS V14.01,2013-02-04 04:20:00,
2013-02-03 23:25:00,32.6,27.6,29.98,NW,315,0.0,0.0,82,0.00,,---,0.00,VWS V14.01,2013-02-04 04:25:00,
2013-02-03 23:30:00,32.4,27.5,29.98,NW,315,0.0,0.0,82,0.00,,---,0.00,VWS V14.01,2013-02-04 04:30:00,
2013-02-03 23:35:00,32.2,27.0,29.98,NW,315,0.0,0.0,81,0.00,,---,0.00,VWS V14.01,2013-02-04 04:35:00,
2013-02-03 23:40:00,32.1,26.9,29.98,NW,315,0.0,0.0,81,0.00,,---,0.00,VWS V14.01,2013-02-04 04:40:00,
2013-02-03 23:45:00,32.0,27.0,29.98,NW,315,0.0,0.0,82,0.00,,---,0.00,VWS V14.01,2013-02-04 04:45:00,
2013-02-03 23:50:00,32.0,27.0,29.98,NW,315,0.0,0.0,82,0.00,,---,0.00,VWS V14.01,2013-02-04 04:50:00,
2013-02-03 23:55:00,32.0,27.0,29.98,NW,315,0.0,0.0,82,0.00,,---,0.00,VWS V14.01,2013-02-04 04:55:00,